Regional Weather Roundup
Issued by NWS Mt. Holly, NJ

Home | Current Version | Previous Version | Text Only | Print | Product List | Glossary On
Versions: 1 2 3 4 5 6 7 8 9 10 11 12 13 14 15 16 17 18 19 20 21 22 23 24 25 26 27 28 29 30 31 32 33 34 35 36 37 38 39 40 41 42 43 44 45 46 47 48 49 50
706
ASUS41 KPHI 121513
RWRPHI

REGIONAL WEATHER ROUNDUP
NATIONAL WEATHER SERVICE MOUNT HOLLY NJ
1000 AM EST THU DEC 12 2019

NOTE:  "FAIR" INDICATES FEW OR NO CLOUDS BELOW 12,000 FEET WITH NO
SIGNIFICANT WEATHER AND/OR OBSTRUCTIONS TO VISIBILITY.

 * = STATION DOES NOT REPORT PRECIPITATION (E.G. RAIN, SNOW, ETC.)
        OR FOG.

NJZ015>026-121600-
SOUTHERN NEW JERSEY

CITY           SKY/WX    TMP DP  RH WIND       PRES   REMARKS
POMONA         FAIR      35  15  44 N5        30.75R WCI  31
WILDWOOD*      FAIR      33  14  45 VRB7      30.76R WCI  27
MILLVILLE      FAIR      32  13  45 NE7       30.75R WCI  26
WRIGHTSTOWN    FAIR      33  13  44 N7        30.73R WCI  27
MOUNT HOLLY    FAIR      32  14  47 N7        30.75R WCI  26
TRENTON        FAIR      31  15  52 NE6       30.73R WCI  25

$$
NJZ001>014-121600-
NORTHERN NEW JERSEY

CITY           SKY/WX    TMP DP  RH WIND       PRES   REMARKS
SUSSEX         MIX PCPN  26  11  52 CALM      30.70R
ANDOVER*         N/A     26  14  60 VRB5      30.71R WCI  20
MORRISTOWN     MOSUNNY   28  18  64 NE6       30.75R WCI  22
NEWARK         PTSUNNY   30  11  45 N9        30.75R WCI  22
TETERBORO      FAIR      30  11  45 N8        30.74R WCI  22
CALDWELL       FAIR      30  11  45 VRB5      30.74S WCI  25
SOMERVILLE     FAIR      29  14  53 N7        30.72R WCI  22
ALLAIRE*       FAIR      31  16  54 N9        30.74R WCI  23
TOMS RIVER*    FAIR      31  17  56 N8        30.75R WCI  23

$$
PAZ043-044-047-054-055-060>062-066>071-121600-
EASTERN PENNSYLVANIA

CITY           SKY/WX    TMP DP  RH WIND       PRES   REMARKS
PHILADELPHIA   PTSUNNY   33  11  39 N8        30.75R WCI  26
NORTH PHILA    FAIR      34  13  41 NE6       30.76R WCI  29
BLUE BELL*     FAIR      30  13  49 CALM      30.73R
DOYLESTOWN     FAIR      32  14  47 N6        30.71R WCI  26
QUAKERTOWN*    SUNNY     30  14  51 NW3       30.72
PERKASIE*      FAIR      28  12  50 NW5       30.72R WCI  23
POTTSTOWN      FAIR      29  13  51 N5        30.74R WCI  24
LANCASTER      FAIR      31  15  52 N5        30.73R WCI  26
COATESVILLE    FAIR      28  14  54 CALM      30.72R
WEST CHESTER   FAIR      32  12  43 N5        30.72R WCI  27
READING        FAIR      30  15  53 CALM      30.73R
ALLENTOWN      FAIR      31  13  47 CALM      30.73R
QN CITY/ALNTWN FAIR      30  16  55 CALM      30.74R
MOUNT POCONO   FAIR      19  12  74 CALM      30.60R
HAZLETON       FAIR      25  12  58 CALM      30.66R
LEHIGHTON      FAIR      28  18  64 CALM      30.72R
WILKES BARRE   FAIR      25  11  55 CALM      30.67R

$$
DEZALL-MDZ008-012-015-019-020-121600-
DELAWARE AND EASTERN MARYLAND

CITY           SKY/WX    TMP DP  RH WIND       PRES   REMARKS
WILMINGTON     FAIR      33  13  43 NE9       30.74S WCI  25
DOVER          FAIR      33  15  47 NE7       30.75R WCI  27
CHESWOLD       SUNNY     32  16  51 NE6G13    30.74S WCI  26
GEORGETOWN     FAIR      35  20  54 NE12      30.75R WCI  27
EASTON         SUNNY     34  16  47 NE7       30.78R WCI  28
STEVENSVILLE   FAIR      32  14  47 NE7       30.76R WCI  26
PATUXENT       PTSUNNY   34  18  52 NE9       30.76  WCI  27
OCEAN CITY     FAIR      37  22  54 NE9       30.74R WCI  30
WALLOPS ISLAND FAIR      36  21  54 NE8       30.74R WCI  30
CAMBRIDGE      SUNNY     32  14  47 NE10      30.76R WCI  24
SALISBURY      FAIR      35  19  52 NE10      30.75R WCI  27

$$
PAZ001-021-NYZ056-072-MDZ011-DCZ001-121600-
OTHER NEARBY LOCATIONS

CITY           SKY/WX    TMP DP  RH WIND       PRES   REMARKS
HARRISBURG     PTSUNNY   32  13  45 W3        30.73R
STATE COLLEGE  SUNNY     23  12  63 CALM      30.66R
WILLIAMSPORT   FAIR      28  17  63 SW6       30.70R WCI  22
BINGHAMTON     FAIR      19   8  62 CALM      30.61R
NEW YORK CITY  FAIR      29   9  43 N10G17    30.75R WCI  20
BALTIMORE      PTSUNNY   33  13  43 E8        30.74R WCI  26
WASHINGTON DC  PTSUNNY   34  15  46 NE5       30.76R WCI  30

$$




USA.gov is the U.S. government's official web portal to all federal, state and local government web resources and services.